Regional Weather Roundup
Issued by NWS

Home | Current Version | Previous Version | Text Only | Print | Product List | Glossary Off
Versions: 1 2 3 4 5 6 7 8 9 10 11 12 13 14 15 16 17 18 19 20 21 22 23 24 25 26 27 28 29 30 31 32 33 34 35 36 37 38 39 40 41 42 43 44 45 46 47 48 49 50

000
ASUS43 KLOT 252110
RWRIL

ILLINOIS REGIONAL WEATHER ROUNDUP
NATIONAL WEATHER SERVICE CHICAGO/ROMEOVILLE IL
300 PM CST SUN JAN 25 2015

NOTE: "FAIR" INDICATES FEW OR NO CLOUDS BELOW 12,000 FEET WITH NO
SIGNIFICANT WEATHER AND/OR OBSTRUCTIONS TO VISIBILITY.

* THESE STATIONS ARE NOT UNDER NWS QUALITY CONTROL. THEY ALSO MAY NOT
  REPORT WEATHER SUCH AS PRECIPITATION OR FOG.

ILZ001-002-007-009-015-016-024-252200-
NORTHWEST ILLINOIS

CITY           SKY/WX    TMP DP  RH WIND       PRES   REMARKS
MOLINE         CLOUDY    30  22  72 NE8       29.87R WCI  22
STERLING*      CLOUDY    28  19  69 NE20G28   29.88R WCI  15
SAVANNA*       CLOUDY    29  20  68 N14G20    29.91R WCI  18
$$

ILZ003-004-008-010-011-017-018-252200-
NORTH CENTRAL ILLINOIS

CITY           SKY/WX    TMP DP  RH WIND       PRES   REMARKS
ROCKFORD       PTSUNNY   27  14  58 NE18G30   29.91R WCI  14
FREEPORT*      CLOUDY    26  15  63 NE17G24   29.92R WCI  13
ROCHELLE*      CLOUDY    27  18  69 NE18G29   29.87R WCI  14
DE KALB*       CLOUDY    26  19  74 NE25G32   29.87R WCI  10
PERU*          CLOUDY    29  26  89 NE21G28   29.85R FOG     WCI  15
$$

ILZ005-006-012>014-019>023-252200-
NORTHEAST ILLINOIS

CITY           SKY/WX    TMP DP  RH WIND       PRES   REMARKS
CHICAGO-OHARE  FLURRIES  27  21  78 N21G30    29.86R WCI  13
CHICAGO-MIDWAY LGT SNOW  30  26  85 NE22      29.85R VSB 1   WCI  17
AURORA         CLOUDY    30  19  63 NE22G31   29.85R WCI  17
LANSING*       LGT SNOW  29  28  93 NE13G25   29.82R WCI  19
JOLIET*        LGT SNOW  29  26  88 NE22G31   29.83R WCI  16
WAUKEGAN       CLOUDY    26  17  68 N18G25    29.90R WCI  13
DUPAGE AIRPORT CLOUDY    28  19  69 NE23G32   29.85R WCI  14
KANKAKEE*      LGT SNOW  32  30  94 N15G25    29.78R WCI  21
WHEELING       CLOUDY    27  18  69 NE22G30   29.90R WCI  13
MORRIS*        LGT SNOW  30  28  92 NE16G23   29.81R WCI  19
ROMEOVILLE*    LGT SNOW  29  26  88 NE17G30   29.83R WCI  17
NORTHERLY ISL    N/A     27  26  96 N22         N/A  WCI  13
$$

LMZ740>746-252200-
SOUTHERN LAKE MICHIGAN

STATION/POSITION SKY/WX   TEMP    WIND        PRES    VSBY  WAVE
                          AIR SEA DIR/SP/G                  HT/PER
                          (F)     (DEG/KT/KT) (MB)    (MI)  (FT/S)
WAUKEGAN HARBOR            27      30/ 25/ 33   N/A
HARRISON CRIB              27      30/ 28/ 31   N/A
BURNHAM HARBOR             27      30/ 20/ 23   N/A
CALUMET HARBOR             28      20/ 21/ 27   N/A
MICHIGAN CITY              28      20/ 21/ 24   N/A
$$

ILZ025>027-034>036-040-047-049-050-058-095>099-252200-
WEST-CENTRAL ILLINOIS

CITY           SKY/WX    TMP DP  RH WIND       PRES   REMARKS
QUINCY         MIX PCPN  32  30  92 N22G30    29.78R WCI  19
GALESBURG*     MIX PCPN  29  26  91 N25G31    29.84R WCI  14
MACOMB*        LGT SNOW  31  29  93 N25G32    29.84R WCI  17
JACKSONVILLE*  CLOUDY    37  34  87 N16G22    29.74R WCI  28
PITTSFIELD*    RAIN      36  33  92 N14G21    29.76R WCI  27
$$

ILZ028>032-037-038-041>044-048-051>054-059>061-252200-
CENTRAL ILLINOIS

CITY           SKY/WX    TMP DP  RH WIND       PRES   REMARKS
PONTIAC        MIX PCPN  33  32  96 NE24G33   29.78R WCI  20
BLOOMINGTON    FLURRIES  33  33 100 NE18G31   29.73R WCI  22
DECATUR        CLOUDY    35  33  92 NE21      29.67R WCI  24
PEORIA         LGT SNOW  33  29  85 NE13G24   29.79R FOG     WCI  24
LACON*         LGT SNOW  30  27  88 N15G25    29.82R WCI  19
LINCOLN*       DRIZZLE   36  34  92 N21G26    29.73R WCI  25
SPRINGFIELD    LGT RAIN  36  33  89 N16       29.71R WCI  26
TAYLORVILLE    CLOUDY    36  34  93 N23G29    29.67R FOG     WCI  24
$$

ILZ033-039-045-046-055>057-062-063-252200-
EAST-CENTRAL ILLINOIS

CITY           SKY/WX    TMP DP  RH WIND       PRES   REMARKS
CHAMPAIGN      CLOUDY    35  32  88 NE21G28   29.66R WCI  24
DANVILLE*      CLOUDY    33  32  96 NE15      29.65R WCI  23
RANTOUL*       CLOUDY    36  34  93 NE20G25   29.69R WCI  25
MATTOON        CLOUDY    38  37  97 N15       29.61R FOG     WCI  29
PARIS*         DRIZZLE   38  38  99 NE7       29.64R WCI  33
$$

ILZ079-100>102-252200-
SOUTHWEST ILLINOIS

CITY           SKY/WX    TMP DP  RH WIND       PRES   REMARKS
BELLEVILLE     LGT RAIN  44  44 100 N13       29.62R
CAHOKIA*       LGT RAIN  45  43  93 N14       29.64R FOG
SPARTA*        DRIZZLE   44  43  96 W12       29.61R
$$

ILZ064>066-069>071-074>076-080>082-084>086-088>090-092>094-252200-
SOUTH-CENTRAL ILLINOIS

CITY           SKY/WX    TMP DP  RH WIND       PRES   REMARKS
CARBONDALE     LGT RAIN  45  43  93 W6        29.60R FOG
CAIRO*         RAIN      45  45 100 SW7       29.63R
EFFINGHAM*     CLOUDY    40  38  90 N3        29.62R FOG
MARION         RAIN      45  43  93 SW12      29.60R
MT. VERNON     CLOUDY    43  39  87 CALM      29.59R
CENTRALIA*     CLOUDY    42  40  90 NW8       29.60R
SALEM*         CLOUDY    44  41  91 N7        29.60R FOG
METROPOLIS*    RAIN      43  43 100 CALM      29.60S
$$

ILZ067-068-072-073-078-083-087-091-252200-
SOUTHEAST ILLINOIS

CITY           SKY/WX    TMP DP  RH WIND       PRES   REMARKS
LAWRENCEVILLE  LGT RAIN  41  40  96 E3        29.61R FOG
FLORA*         CLOUDY    41  41 100 N3        29.60R FOG
FAIRFIELD*     DRIZZLE   42  42  99 CALM      29.58R
HARRISBURG*    RAIN      42  42 100 SW3       29.60R
ROBINSON*      LGT RAIN  40  39  98 E5        29.62R
CARMI*         LGT RAIN  45  45 100 S6        29.59R
$$

ABBREVIATIONS USED IN REMARKS
   TC - TEMPERATURE IN CELSIUS
  WCI - WIND CHILL INDEX
   HX - HEAT INDEX
  VSB - VISIBILITY
$$




USA.gov is the U.S. government's official web portal to all federal, state and local government web resources and services.